Weather History for KK22 - July, 2013

Change the Weather History Date:

Tuesday, July 2, 2013

  Actual Average (KJKL) Record (KJKL)
Temperature  
Mean Temperature 72 °F 75 °F  
Max Temperature 82 °F 85 °F 93 °F (1991)
Min Temperature 64 °F 66 °F 53 °F (1988)
Degree Days  
Heating Degree Days 0 0  
Month to date heating degree days 0  
Since 1 June heating degree days 12  
Since 1 July heating degree days 0  
Cooling Degree Days 8 10  
Month to date cooling degree days 20  
Year to date cooling degree days 379  
Since 1 June cooling degree days 243  
Growing Degree Days 22 (Base 50)    
Moisture  
Dew Point 67 °F    
Average Humidity 91    
Maximum Humidity 100    
Minimum Humidity 63    
Precipitation  
Precipitation 0.00 in 0.15 in 0.80 in (1996)
Month to date precipitation 0.30  
Year to date precipitation 25.51  
Snow  
Snow 0.00 in 0.00 in - ()
Month to date snowfall 0.0  
Since 1 June snowfall 0.0  
Since 1 July snowfall 0.0  
Snow Depth -    
Sea Level Pressure  
Sea Level Pressure 30.01 in    
Wind  
Wind Speed 2 mph (SE)    
Max Wind Speed 13 mph    
Max Gust Speed 16 mph    
Visibility 7 miles    
Events Fog , Rain    
T = Trace of Precipitation, MM = Missing Value Source: NWS Daily Summary

Daily Weather History Graph

Daily Weather History Graph

Search for Another Location

Airport or City:

Trip Planner

Search our weather history database for the weather conditions in past years. The results will help you decide how hot, cold, wet, or windy it might be!

Date:

Astronomy

Jul. 02, 2013 Rise Set
Actual Time 6:12 AM EDT 8:56 PM EDT
Civil Twilight 5:41 AM EDT 9:27 PM EDT
Nautical Twilight 5:02 AM EDT 10:06 PM EDT
Astronomical Twilight 4:19 AM EDT 10:49 PM EDT
Moon 2:11 AM EDT (7/2) 4:11 PM EDT (7/2)
Length of Visible Light 15h 45m
Length of Day
14h 43m
Waning Crescent, 26% of the Moon is Illuminated
Jul 2
Waning Crescent
Jul 8
New
Jul 15
First Quarter
Jul 22
Full
Jul 29
Last Quarter

Hourly Weather History & Observations

Time (EDT) Temp. Heat Index Dew Point Humidity Pressure Visibility Wind Dir Wind Speed Gust Speed Precip Events Conditions
12:15 AM 66.2 °F - 65.5 °F 98% 29.96 in 10.0 mi SSW 3.5 mph - N/A   Mostly Cloudy
12:35 AM 66.2 °F - 65.5 °F 98% 29.96 in 10.0 mi Calm Calm - N/A   Overcast
12:55 AM 65.7 °F - 65.3 °F 99% 29.95 in 4.0 mi Calm Calm - N/A   Overcast
1:15 AM 64.9 °F - 64.6 °F 99% 29.95 in 0.5 mi Calm Calm - N/A Fog Fog
1:35 AM 65.7 °F - 65.5 °F 99% 29.95 in 0.2 mi Calm Calm - N/A Fog Fog
1:55 AM 65.7 °F - 65.5 °F 99% 29.95 in 0.2 mi Calm Calm - N/A Fog Fog
2:15 AM 65.7 °F - 65.5 °F 99% 29.95 in 0.2 mi Calm Calm - N/A Fog Fog
2:35 AM 65.3 °F - 65.1 °F 99% 29.94 in 0.2 mi Calm Calm - N/A Fog Fog
2:55 AM 65.3 °F - 65.1 °F 99% 29.94 in 0.2 mi Calm Calm - N/A Fog Fog
3:15 AM 65.3 °F - 65.3 °F 100% 29.94 in 0.2 mi Calm Calm - N/A Fog Fog
3:35 AM 65.3 °F - 65.3 °F 100% 29.94 in 0.2 mi Calm Calm - N/A Fog Fog
3:55 AM 65.3 °F - 65.3 °F 100% 29.94 in 0.2 mi Calm Calm - N/A Fog Fog
4:15 AM 64.8 °F - 64.8 °F 100% 29.94 in 0.5 mi Calm Calm - N/A Fog Fog
4:35 AM 64.4 °F - 64.4 °F 100% 29.95 in 0.2 mi Calm Calm - N/A Fog Fog
4:55 AM 64.6 °F - 64.6 °F 100% 29.96 in 0.2 mi Calm Calm - N/A Fog Fog
5:15 AM 64.8 °F - 64.8 °F 100% 29.96 in 0.2 mi Calm Calm - N/A Fog Fog
5:35 AM 64.9 °F - 64.9 °F 100% 29.97 in 0.5 mi Calm Calm - N/A Fog Fog
5:55 AM 64.8 °F - 64.8 °F 100% 29.98 in 0.5 mi Calm Calm - N/A Fog Fog
6:15 AM 64.4 °F - 64.4 °F 100% 29.98 in 0.2 mi Calm Calm - N/A Fog Fog
6:35 AM 64.4 °F - 64.4 °F 100% 29.98 in 0.2 mi Calm Calm - N/A Fog Fog
6:55 AM 64.0 °F - 64.0 °F 100% 29.98 in 0.2 mi Calm Calm - N/A Fog Fog
7:15 AM 64.0 °F - 64.0 °F 100% 29.99 in 0.2 mi Calm Calm - N/A Fog Fog
7:35 AM 64.8 °F - 64.8 °F 100% 29.99 in 7.0 mi Calm Calm - N/A   Mostly Cloudy
7:55 AM 64.8 °F - 64.8 °F 100% 30.01 in 10.0 mi Calm Calm - N/A   Clear
8:15 AM 65.3 °F - 65.3 °F 100% 30.02 in 10.0 mi Calm Calm - N/A   Scattered Clouds
8:35 AM 65.7 °F - 65.3 °F 99% 30.02 in 10.0 mi South 3.5 mph - N/A   Scattered Clouds
8:55 AM 66.6 °F - 65.1 °F 95% 30.02 in 10.0 mi South 4.6 mph - N/A   Scattered Clouds
9:15 AM 67.1 °F - 64.9 °F 93% 30.03 in 10.0 mi South 3.5 mph - N/A   Mostly Cloudy
9:35 AM 67.3 °F - 65.3 °F 93% 30.03 in 10.0 mi SSE 3.5 mph - N/A   Overcast
9:55 AM 67.8 °F - 66.0 °F 94% 30.03 in 10.0 mi SSE 3.5 mph - N/A Rain Light Rain
10:15 AM 68.0 °F - 66.4 °F 95% 30.03 in 10.0 mi SE 6.9 mph - N/A Rain Light Rain
10:35 AM 69.6 °F - 66.4 °F 89% 30.04 in 10.0 mi SSE 3.5 mph - N/A   Overcast
10:55 AM 71.2 °F - 66.4 °F 85% 30.04 in 10.0 mi SE 4.6 mph - N/A   Overcast
11:15 AM 72.0 °F - 67.3 °F 85% 30.04 in 10.0 mi SSE 4.6 mph - N/A   Overcast
11:35 AM 73.2 °F - 67.1 °F 81% 30.05 in 10.0 mi South 4.6 mph - N/A   Overcast
11:55 AM 74.7 °F - 68.2 °F 80% 30.05 in 10.0 mi SSE 3.5 mph - N/A   Overcast
12:35 PM 77.9 °F - 68.5 °F 73% 30.05 in 10.0 mi South 5.8 mph - N/A   Scattered Clouds
12:55 PM 79.5 °F - 69.1 °F 70% 30.04 in 10.0 mi SSE 3.5 mph - N/A   Scattered Clouds
1:15 PM 80.4 °F 83.0 °F 67.8 °F 65% 30.04 in 10.0 mi SE 3.5 mph - N/A   Mostly Cloudy
1:35 PM 81.0 °F 83.4 °F 67.3 °F 63% 30.04 in 10.0 mi Calm Calm - N/A   Mostly Cloudy
1:55 PM 80.8 °F 83.8 °F 68.7 °F 67% 30.04 in 10.0 mi ESE 5.8 mph - N/A   Mostly Cloudy
2:15 PM 81.3 °F 84.5 °F 69.1 °F 66% 30.03 in 10.0 mi ESE 4.6 mph - N/A   Mostly Cloudy
2:35 PM 81.3 °F 84.5 °F 69.1 °F 66% 30.03 in 10.0 mi East 4.6 mph - N/A   Overcast
2:55 PM 80.1 °F 82.8 °F 68.5 °F 68% 30.02 in 10.0 mi Calm Calm - N/A   Mostly Cloudy
3:15 PM 77.7 °F - 69.6 °F 76% 30.02 in 10.0 mi West 12.7 mph 16.1 mph N/A   Overcast
3:35 PM 74.3 °F - 66.9 °F 78% 30.02 in 10.0 mi NNW 4.6 mph - N/A   Overcast
3:55 PM 76.8 °F - 69.6 °F 78% 30.02 in 10.0 mi NNE 6.9 mph - N/A   Mostly Cloudy
4:15 PM 73.0 °F - 70.5 °F 92% 30.03 in 0.5 mi Calm Calm - N/A Rain Heavy Rain
4:35 PM 71.8 °F - 70.3 °F 95% 30.03 in 7.0 mi North 3.5 mph - N/A Rain Light Rain
4:55 PM 72.0 °F - 69.4 °F 92% 30.04 in 10.0 mi West 10.4 mph - N/A   Overcast
5:15 PM 71.2 °F - 69.1 °F 93% 30.03 in 10.0 mi NNE 6.9 mph - N/A   Light Drizzle
5:35 PM 72.7 °F - 70.2 °F 92% 30.03 in 10.0 mi NE 4.6 mph - N/A   Mostly Cloudy
5:55 PM 75.7 °F - 72.1 °F 89% 30.03 in 10.0 mi NNE 4.6 mph - N/A   Mostly Cloudy
6:15 PM 75.9 °F - 71.6 °F 86% 30.03 in 10.0 mi Calm Calm - N/A   Mostly Cloudy
6:35 PM 75.2 °F - 71.1 °F 87% 30.02 in 10.0 mi Calm Calm - N/A   Scattered Clouds
6:55 PM 75.2 °F - 71.4 °F 88% 30.03 in 10.0 mi East 3.5 mph - N/A   Mostly Cloudy
7:15 PM 74.3 °F - 71.8 °F 92% 30.03 in 10.0 mi Calm Calm - N/A   Overcast
7:35 PM 73.8 °F - 71.6 °F 93% 30.04 in 10.0 mi Calm Calm - N/A   Overcast
7:55 PM 74.3 °F - 71.6 °F 91% 30.04 in 10.0 mi Calm Calm - N/A   Overcast
8:15 PM 74.3 °F - 71.6 °F 91% 30.05 in 10.0 mi Calm Calm - N/A   Overcast
8:35 PM 72.5 °F - 71.6 °F 97% 30.05 in 2.5 mi Calm Calm - N/A   Overcast
9:15 PM 72.1 °F - 71.2 °F 97% 30.05 in 7.0 mi East 6.9 mph - N/A   Overcast
9:35 PM 72.7 °F - 70.2 °F 92% 30.06 in 10.0 mi SE 6.9 mph - N/A   Overcast
9:55 PM 73.0 °F - 69.4 °F 88% 30.07 in 10.0 mi SSE 4.6 mph - N/A   Overcast
10:15 PM 72.9 °F - 68.9 °F 87% 30.07 in 10.0 mi Calm Calm - N/A   Overcast
10:35 PM 70.9 °F - 69.1 °F 94% 30.08 in 10.0 mi Calm Calm - N/A   Overcast
10:55 PM 72.1 °F - 68.4 °F 88% 30.08 in 10.0 mi SSE 5.8 mph - N/A   Scattered Clouds
11:15 PM 72.0 °F - 68.2 °F 88% 30.09 in 10.0 mi South 4.6 mph - N/A   Clear
11:35 PM 71.6 °F - 68.0 °F 88% 30.09 in 10.0 mi SSE 5.8 mph - N/A   Clear
11:55 PM 71.4 °F - 68.0 °F 89% 30.09 in 10.0 mi South 3.5 mph - N/A   Clear